Regional Weather Roundup
Issued by NWS

Home | Current Version | Previous Version | Text Only | Print | Product List | Glossary Off
Versions: 1 2 3 4 5 6 7 8 9 10 11 12 13 14 15 16 17 18 19 20 21 22 23 24 25 26 27 28 29 30 31 32 33 34 35 36 37 38 39 40 41 42 43 44 45 46 47 48 49 50

000
ASUS43 KMKX 242111
RWRWI

WISCONSIN REGIONAL WEATHER ROUNDUP
NATIONAL WEATHER SERVICE MILWAUKEE/SULLIVAN WI
400 PM CDT FRI MAR 24 2017

NOTE: "FAIR" INDICATES FEW OR NO CLOUDS BELOW 12,000 FEET WITH NO
SIGNIFICANT WEATHER AND/OR OBSTRUCTIONS TO VISIBILITY.

WIZ001-002-006>008-014>016-023>028-242200-
NORTHWEST WISCONSIN

CITY           SKY/WX    TMP DP  RH WIND       PRES   REMARKS
SUPERIOR ARPT  CLOUDY    38  32  80 E6        30.15R WCI  33
ASHLAND        CLOUDY    39  31  72 NE13      30.14R WCI  31
HAYWARD        CLOUDY    40  32  73 N14       30.10R WCI  32
SIREN          CLOUDY    40  33  77 N6        30.12R
CUMBERLAND     CLOUDY    37  34  87 N10       30.08R WCI  30
RICE LAKE      CLOUDY    41  36  83 CALM      30.09R
CHETEK         CLOUDY    40  35  84 N6        30.08R
LADYSMITH      CLOUDY    39  36  87 N10       30.09R WCI  32
EAU CLAIRE     CLOUDY    42  38  85 N5        30.05R
MENOMONIE      CLOUDY    44  38  78 N8        30.06R
NEW RICHMOND   CLOUDY    42  35  75 N9        30.09R
OSCEOLA        CLOUDY    43  36  75 N7        30.12R
$$

WIZ003>005-009-010-017-018-242200-
NORTH CENTRAL WISCONSIN

CITY           SKY/WX    TMP DP  RH WIND       PRES   REMARKS
MANITOWISH WTR CLOUDY    34  34 100 N3        30.07R FOG
ARBOR VITAE    CLOUDY    37  35  94 NE5       30.06R FOG     WCI  33
WOODRUFF       CLOUDY    37  35  94 NE5       30.06R FOG     WCI  33
RHINELANDER    CLOUDY    36  35  96 NE8       30.07R FOG     WCI  30
EAGLE RIVER    CLOUDY    34  34  99 N7        30.07R FOG     WCI  28
LAND O LAKES   CLOUDY    34  34 100 N3        30.09R FOG
PHILLIPS       CLOUDY    36  35  96 NE12      30.06R WCI  27
TOMAHAWK       CLOUDY    36  33  90 N6        30.07R FOG     WCI  31
MEDFORD        CLOUDY    37  35  92 NE12      30.03S WCI  29
MERRILL        LGT RAIN  37  37  98 NE5       30.06R WCI  34
$$

WIZ029-030-035-036-043>047-242200-
CENTRAL WISCONSIN

CITY           SKY/WX    TMP DP  RH WIND       PRES   REMARKS
WAUSAU         LGT RAIN  38  36  92 N6        30.04R WCI  33
MOSINEE        CLOUDY    37  37 100 NE9       30.05R FOG     WCI  31
MARSHFIELD     LGT RAIN  38  38 100 NE8       30.02S FOG     WCI  32
STEVENS POINT  LGT RAIN  36  36 100 NE7       30.04S WCI  30
WAUPACA        LGT RAIN  39  37  91 N8        30.05R WCI  34
WAUTOMA        LGT RAIN  38  36  92 NE9       30.04R WCI  31
WISC RAPIDS    LGT RAIN  38  38 100 NE7       30.05R WCI  33
CAMP DOUGLAS   CLOUDY    39  37  93 N6        30.03R WCI  35
$$

WIZ011>013-019>022-031-037>040-048>050-242200-
NORTHEAST WISCONSIN

CITY           SKY/WX    TMP DP  RH WIND       PRES   REMARKS
ANTIGO         LGT RAIN  36  35  99 N8        30.04R WCI  29
SHAWANO        LGT RAIN  38  36  91 NE8       30.06S WCI  32
OCONTO         CLOUDY    37  35  94 NE7       30.06R WCI  31
STURGEON BAY   LGT RAIN  35  34  96 N7        30.08R WCI  29
GREEN BAY      LGT RAIN  37  37 100 NE14      30.05R FOG     WCI  28
MANITOWOC      RAIN      37  34  89 N9        30.05R FOG     WCI  30
APPLETON       DRIZZLE   36  36 100 NE12      30.02R WCI  27
CLINTONVILLE   LGT RAIN  36  36 100 NE6       30.06R WCI  31
OSHKOSH        MIX PCPN  37  35  92 N15       30.03R FOG     WCI  28
$$

WIZ032>034-041-042-053>061-242200-
SOUTHWEST WISCONSIN

CITY           SKY/WX    TMP DP  RH WIND       PRES   REMARKS
LA CROSSE      CLOUDY    44  40  85 NE7       30.03R FOG
SPARTA         CLOUDY    40  39  95 NE10      30.05  WCI  34
VIROQUA        CLOUDY    41  40  97 N13       29.98R
BOSCOBEL       CLOUDY    51  43  74 N12       29.95R
PRAIRIE DU CHI CLOUDY    47  40  78 NW13      29.96R
PLATTEVILLE    CLOUDY    57  51  79 N7        29.92R
$$

WIZ056-057-062-063-064-067-068-242200-
SOUTH CENTRAL WISCONSIN

CITY           SKY/WX    TMP DP  RH WIND       PRES   REMARKS
REEDSBURG      CLOUDY    43  39  85 N10       29.98R
BARABOO/DELLS  LGT RAIN  42  37  84 NE14      29.98S
LONE ROCK      CLOUDY    50  42  74 N16       29.95R HAZE
MINERAL POINT  CLOUDY    57  50  77 N10       29.92R
MADISON        CLOUDY    51  44  77 N20       29.93S
MIDDLETON      CLOUDY    52  44  76 N17G24    29.95R
WATERTOWN      CLOUDY    52  45  77 N15G23    29.94R
MONROE         CLOUDY    63  50  63 N12       29.90R
JANESVILLE     MOSUNNY   70  50  49 N8        29.88R
$$

WIZ051-052-058>065-066-070>072-242200-
SOUTHEAST WISCONSIN

CITY           SKY/WX    TMP DP  RH WIND       PRES   REMARKS
MILWAUKEE      CLOUDY    42  35  76 N18G25    29.97R
WAUKESHA       MOSUNNY   46  37  71 NE12      29.95R
MILWAUKEE/TIMM SUNNY     43  34  70 NE12G18   29.98R
RACINE         CLOUDY    42  36  79 N15       29.95S
KENOSHA        CLOUDY    51  41  68 NE13      29.92R
FOND DU LAC    LGT RAIN  39  33  79 N17G24    30.01R WCI  30
SHEBOYGAN      LGT RAIN  40  35  83 NE12      30.01R WCI  33
WEST BEND      CLOUDY    45  37  76 NE9G22    29.97R
JUNEAU         CLOUDY    42  37  83 N13G22    29.97S
$$

LSZ147-162-242200-
LAKE SUPERIOR

STATION/POSITION TIME  TEMP    WIND        PRES    WAVE
                       AIR SEA DIR/SP/G            HT/PER
                 (UTC) (F)     (DEG/KT/KT) (MB)    (FT/S)
DEVILS ISLAND    2000   36      10/  9/  9 1021.0R
PORT WING        2040   36      20/  8/  8 1020.7R
SAXON HARBOR     2040   35     360/  3/  5 1020.3R
$$

LMZ867-665-643>646-242200-
LAKE MICHIGAN

STATION/POSITION TIME  TEMP    WIND        PRES    WAVE
                       AIR SEA DIR/SP/G            HT/PER
                 (UTC) (F)     (DEG/KT/KT) (MB)    (FT/S)
CHAMBERS ISLAND  2040   33      10/  6/  8 1017.6R
NORTHPORT PIER   2040   34     350/  3/  4 1018.3R
SISTER BAY       2050   34      10/  7/  9   N/A
KEWAUNEE LAKESHO 2048   35      30/ 12/ 16 1016.9R
SHEBOYGAN LAKESH 2100   36      10/ 24/ 25 1016.7R
PORT WASHINGTON  2030   42      40/ 16/ 20 1015.6R
MILWAUKEE LAKESH 2050   39      10/ 18/ 21   N/A
KENOSHA   LAKESH 2100   40      10/ 18/ 19 1013.2
$$

TC  - TEMPERATURE IN CELSIUS
VSB - VISIBILITY IN STATUTE MILES
WCI - WIND CHILL INDEX
HX  - HEAT INDEX





USA.gov is the U.S. government's official web portal to all federal, state and local government web resources and services.